Zurück zum Katalog

STARLINK-30973

AktivKommunikationVLEO
NORAD 58713·PAYLOAD·🇺🇸 United States

Gestartet Jan 3, 2024 von Vandenberg Space Force Base

Loading…

Nächste Überflüge (nächste 24 Stunden)

TLE

AktuellSource: CelesTrak SupGP

Epoche: Sep 14, 2026, 22:34 UTC

1 58713C 24002J   26257.94076389  .00039747  00000+0  11746-2 0  2577
2 58713  53.1587  69.5897 0001116  82.8634 104.6168 15.34365205    10

Verfolge STARLINK-30973 in Echtzeit mit AllMySat

Download on the App Store